This demonstration page uses our WeatherBlox Daily Observations layout. Learn more.

Left ArrowRight Arrow

39.92423, -83.80882

Hourly Observations for June 19, 2015

Temp ( °F °C ) Dew Point ( °F °C ) Humidity (%) Winds ( mph kmh ) Pressure ( in mb ) Visibility ( mi km ) Precip ( " mm )
12:56 am 00:56 Clear with Mist and Fog 70 21.1 70 21.1 100 100 SW 8 13 30.03 1017 6 9.65604 0 0
1:56 am 01:56 Partly Cloudy with Mist and Fog 70 21.1 70 21.1 100 100 SSW 8 13 30.03 1017 6 9.65604 0 0
2:31 am 02:31 Cloudy with Mist and Fog 70 21 70 21 100 100 SW 8 13 30.03 1017 6 9.65604 0 0
2:56 am 02:56 Cloudy 70 21.1 70 21.1 100 100 SW 10 17 30.03 1017 7 11.26538 0 0
3:56 am 03:56 Cloudy 70 21.1 69 20.5 96 96 W 7 11 30.03 1017 8 12.87472 0 0
4:30 am 04:30 Cloudy with Mist and Fog 70 21 70 21 100 100 W 6 9 30.03 1017 4 6.43736 0 0.0254
4:56 am 04:56 Cloudy with Mist and Fog 70 21.1 70 21.1 100 100 W 5 7 30.01 1016 6 9.65604 0 0.0254
5:09 am 05:09 Mostly Cloudy 70 21 70 21 100 100 W 3 6 30 1016 7 11.26538 0 0
5:56 am 05:56 Partly Cloudy with Mist and Fog 69 20.5 69 20.5 100 100 WSW 3 6 30.02 1017 6 9.65604 0 0
6:56 am 06:56 Sunny with Mist and Fog 69 20.5 69 20.5 100 100 NW 5 7 30.04 1017 6 9.65604 0 0
7:56 am 07:56 Mostly Sunny 69 20.5 66 18.8 90 90 WSW 6 9 30.06 1018 7 11.26538 0 0
8:56 am 08:56 Partly Cloudy 71 21.6 66 18.8 84 84 WSW 6 9 30.06 1018 7 11.26538 0 0
9:16 am 09:16 Mostly Cloudy with Mist and Fog 72 22 66 19 83 83 SW 8 13 30.06 1018 6 9.65604 0 0
9:56 am 09:56 Mostly Cloudy 71 21.6 67 19.4 87 87 WSW 6 9 30.07 1018 7 11.26538 0 0
10:56 am 10:56 Mostly Cloudy with Mist and Fog 71 21.6 68 20 91 91 W 5 7 30.08 1019 6 9.65604 0 0.0254
11:56 am 11:56 Mostly Cloudy with Light Rain 72 22.2 69 20.5 90 90 W 10 17 30.08 1019 5 8.0467 0 0.0254
12:56 pm 12:56 Cloudy 71 21.6 67 19.4 87 87 WSW 7 11 30.07 1018 7 11.26538 0 0.0254
1:47 pm 13:47 Cloudy with Mist and Fog 70 21 66 19 88 88 W 7 11 30.06 1018 6 9.65604 0 0
1:56 pm 13:56 Cloudy with Mist and Fog 71 21.6 67 19.4 87 87 WNW 7 11 30.06 1018 6 9.65604 0 0
2:07 pm 14:07 Cloudy with Mist and Fog 70 21 70 21 100 100 NNW 6 9 30.06 1018 6 9.65604 0 0
2:34 pm 14:34 Cloudy 70 21 68 20 94 94 NNW 8 13 30.06 1018 7 11.26538 0 0
2:56 pm 14:56 Cloudy with Mist and Fog 71 21.6 68 20 91 91 NNE 7 11 30.04 1017 6 9.65604 0 0
3:15 pm 15:15 Hazy 73 23 68 20 83 83 NNE 7 11 30.03 1017 6 9.65604 0 0
3:32 pm 15:32 Mostly Cloudy 73 23 70 21 89 89 N 5 7 30.03 1017 7 11.26538 0 0
3:56 pm 15:56 Mostly Sunny 74 23.3 68 20 82 82 NNE 6 9 30.02 1017 7 11.26538 0 0
4:28 pm 16:28 Mostly Cloudy 75 24 68 20 78 78 NE 7 11 30 1016 7 11.26538 0 0
4:56 pm 16:56 Mostly Cloudy 76 24.4 68 20 77 77 E 7 11 30 1016 7 11.26538 0 0
5:56 pm 17:56 Mostly Cloudy 75 23.8 70 21.1 85 85 NE 8 13 30.01 1016 8 12.87472 0 0
6:56 pm 18:56 Mostly Cloudy 73 22.7 69 20.5 87 87 ENE 9 15 30 1016 8 12.87472 0 0
7:12 pm 19:12 Mostly Sunny 73 23 70 21 89 89 ENE 10 17 30 1016 9 14.48406 0 0
7:56 pm 19:56 Partly Cloudy 72 22.2 69 20.5 90 90 ENE 7 11 30.01 1016 8 12.87472 0 0
8:06 pm 20:06 Mostly Cloudy 72 22 70 21 94 94 ENE 5 7 30 1016 8 12.87472 0 0
8:14 pm 20:14 Partly Cloudy 72 22 70 21 94 94 ENE 7 11 30 1016 8 12.87472 0 0
8:56 pm 20:56 Sunny 71 21.6 68 20 91 91 E 7 11 29.99 1016 8 12.87472 0 0
9:56 pm 21:56 Clear 70 21.1 69 20.5 96 96 SE 6 9 29.98 1015 8 12.87472 0 0
10:56 pm 22:56 Clear 69 20.5 69 20.5 100 100 ENE 6 9 29.98 1015 7 11.26538 0 0
11:56 pm 23:56 Partly Cloudy with Mist and Fog 69 20.5 69 20.5 100 100 E 6 9 29.97 1015 6 9.65604 0 0

Powered by AerisWeather